Weather History for Eureka, AK

Change the Weather History Date:

Sunday, November 10, 2013

  Actual Average Record
Temperature  
Mean Temperature 19 °F -  
Max Temperature 28 °F 14 °F 35 °F (2004)
Min Temperature 10 °F 5 °F -11 °F (1996)
Degree Days  
Heating Degree Days 46    
Moisture  
Dew Point 20 °F    
Average Humidity 95    
Maximum Humidity 100    
Minimum Humidity 86    
Precipitation  
Precipitation 0.00 in - - ()
Sea Level Pressure  
Sea Level Pressure 29.67 in    
Wind  
Wind Speed 0 mph (NE)    
Max Wind Speed 8 mph    
Max Gust Speed -    
Visibility 6 miles    
Events      
Averages and records for this station are not official NWS values.
T = Trace of Precipitation, MM = Missing Value Source: NWS Daily Summary

Daily Weather History Graph

Daily Weather History Graph

Search for Another Location

Airport:

Trip Planner

Search our weather history database for the weather conditions in past years. The results will help you decide how hot, cold, wet, or windy it might be!

Date:

Astronomy

Nov. 10, 2013 Rise Set
Actual Time 8:46 AM AKST 4:17 PM AKST
Civil Twilight 7:55 AM AKST 5:09 PM AKST
Nautical Twilight 7:00 AM AKST 6:03 PM AKST
Astronomical Twilight 6:08 AM AKST 6:55 PM AKST
Moon 2:20 PM AKST (11/10) No Moon Set
Length of Visible Light 9h 14m
Length of Day
7h 30m
First Quarter, 57% of the Moon is Illuminated
Nov 10
First Quarter
Nov 17
Full
Nov 25
Last Quarter
Dec 2
New
Dec 9
First Quarter

Hourly Weather History & Observations

Time (AKST) Temp. Windchill Dew Point Humidity Pressure Visibility Wind Dir Wind Speed Gust Speed Precip Events Conditions
12:16 AM 10.4 °F - 8.6 °F 92% 29.84 in 10.0 mi Calm Calm - N/A   Overcast
12:36 AM 10.4 °F - 8.6 °F 92% 29.83 in 10.0 mi Calm Calm - N/A   Overcast
12:56 AM 10.4 °F - 8.6 °F 92% 29.83 in 10.0 mi Calm Calm - N/A   Overcast
1:16 AM 10.4 °F - 8.6 °F 92% 29.83 in 10.0 mi Calm Calm - N/A   Overcast
1:36 AM 10.4 °F - 8.6 °F 92% 29.83 in 10.0 mi Calm Calm - N/A   Overcast
1:56 AM 10.4 °F - 8.6 °F 92% 29.82 in 8.0 mi Calm Calm - N/A   Overcast
2:16 AM 12.2 °F - 10.4 °F 92% 29.82 in 8.0 mi Calm Calm - N/A   Overcast
2:36 AM 10.4 °F - 8.6 °F 92% 29.82 in 10.0 mi Calm Calm - N/A   Overcast
2:56 AM 12.2 °F - 10.4 °F 92% 29.82 in 10.0 mi Calm Calm - N/A   Overcast
3:16 AM 15.8 °F - 15.8 °F 100% 29.81 in 7.0 mi Calm Calm - N/A   Overcast
3:36 AM 15.8 °F - 12.2 °F 86% 29.80 in 8.0 mi Calm Calm - N/A   Overcast
3:56 AM 12.2 °F - 10.4 °F 92% 29.79 in 10.0 mi Calm Calm - N/A   Overcast
4:16 AM 15.8 °F - 14.0 °F 93% 29.79 in 10.0 mi Calm Calm - N/A   Overcast
4:36 AM 15.8 °F - 12.2 °F 86% 29.79 in 10.0 mi Calm Calm - N/A   Overcast
4:56 AM 14.0 °F - 12.2 °F 93% 29.78 in 10.0 mi Calm Calm - N/A   Overcast
5:16 AM 14.0 °F - 12.2 °F 93% 29.77 in 10.0 mi Calm Calm - N/A   Overcast
5:36 AM 17.6 °F - 15.8 °F 93% 29.75 in 10.0 mi Calm Calm - N/A   Mostly Cloudy
5:56 AM 15.8 °F - 14.0 °F 93% 29.74 in 10.0 mi Calm Calm - N/A   Overcast
6:16 AM 14.0 °F - 12.2 °F 93% 29.73 in 10.0 mi Calm Calm - N/A   Overcast
6:36 AM 15.8 °F - 14.0 °F 93% 29.73 in 10.0 mi Calm Calm - N/A   Overcast
6:56 AM 19.4 °F - 17.6 °F 93% 29.73 in 10.0 mi Calm Calm - N/A   Overcast
7:16 AM 21.2 °F - 19.4 °F 93% 29.73 in 7.0 mi Calm Calm - N/A   Overcast
7:36 AM 21.2 °F - 19.4 °F 93% 29.71 in 1.0 mi Calm Calm - N/A   Overcast
7:56 AM 24.8 °F - 23.0 °F 93% 29.71 in 1.5 mi Calm Calm - N/A   Overcast
8:16 AM 24.8 °F - 24.8 °F 100% 29.70 in 1.0 mi Calm Calm - N/A   Overcast
8:36 AM 24.8 °F - 24.8 °F 100% 29.69 in 1.5 mi Calm Calm - N/A   Overcast
8:56 AM 24.8 °F - 23.0 °F 93% 29.69 in 10.0 mi Calm Calm - N/A   Overcast
9:16 AM 24.8 °F - 24.8 °F 100% 29.69 in 10.0 mi Calm Calm - N/A   Overcast
9:36 AM 24.8 °F - 23.0 °F 93% 29.68 in 10.0 mi Calm Calm - N/A   Overcast
9:56 AM 24.8 °F - 23.0 °F 93% 29.68 in 10.0 mi Calm Calm - N/A   Overcast
10:16 AM 24.8 °F - 24.8 °F 100% 29.67 in 10.0 mi Calm Calm - N/A   Overcast
10:36 AM 24.8 °F - 23.0 °F 93% 29.66 in 10.0 mi Calm Calm - N/A   Overcast
10:56 AM 24.8 °F - 23.0 °F 93% 29.66 in 10.0 mi Calm Calm - N/A   Overcast
11:16 AM 24.8 °F - 23.0 °F 93% 29.66 in 4.0 mi Calm Calm - N/A   Overcast
11:36 AM 26.6 °F - 24.8 °F 93% 29.65 in 0.5 mi Calm Calm - N/A   Overcast
11:56 AM 26.6 °F - 26.6 °F 100% 29.64 in 2.5 mi Calm Calm - N/A   Overcast
12:16 PM 26.6 °F - 26.6 °F 100% 29.63 in 0.5 mi Calm Calm - N/A   Overcast
12:36 PM 26.6 °F - 26.6 °F 100% 29.63 in 0.2 mi Calm Calm - N/A   Overcast
12:56 PM 26.6 °F - 24.8 °F 93% 29.62 in 0.2 mi Calm Calm - N/A   Overcast
1:16 PM 26.6 °F - 26.6 °F 100% 29.62 in 0.2 mi Calm Calm - N/A   Overcast
1:36 PM 26.6 °F - 24.8 °F 93% 29.62 in 4.0 mi Calm Calm - N/A   Overcast
1:56 PM 26.6 °F - 26.6 °F 100% 29.61 in 10.0 mi Calm Calm - N/A   Overcast
2:16 PM 26.6 °F - 24.8 °F 93% 29.61 in 10.0 mi Calm Calm - N/A   Overcast
2:36 PM 26.6 °F - 24.8 °F 93% 29.60 in 10.0 mi Calm Calm - N/A   Overcast
2:56 PM 26.6 °F - 26.6 °F 100% 29.60 in 10.0 mi Calm Calm - N/A   Overcast
3:16 PM 26.6 °F - 26.6 °F 100% 29.59 in 10.0 mi Calm Calm - N/A   Overcast
3:36 PM 26.6 °F - 24.8 °F 93% 29.59 in 10.0 mi Calm Calm - N/A   Overcast
3:56 PM 26.6 °F - 24.8 °F 93% 29.58 in 10.0 mi Calm Calm - N/A   Overcast
4:16 PM 26.6 °F - 24.8 °F 93% 29.58 in 10.0 mi Calm Calm - N/A   Overcast
4:36 PM 26.6 °F - 24.8 °F 93% 29.58 in 10.0 mi Calm Calm - N/A   Overcast
4:56 PM 26.6 °F - 26.6 °F 100% 29.57 in 10.0 mi Calm Calm - N/A   Overcast
5:16 PM 26.6 °F - 24.8 °F 93% 29.57 in 10.0 mi Calm Calm - N/A   Overcast
5:36 PM 26.6 °F - 24.8 °F 93% 29.57 in 10.0 mi Calm Calm - N/A   Overcast
5:56 PM 26.6 °F - 24.8 °F 93% 29.56 in 10.0 mi Calm Calm - N/A   Overcast
6:16 PM 26.6 °F - 24.8 °F 93% 29.56 in 4.0 mi Calm Calm - N/A   Overcast
6:36 PM 26.6 °F - 26.6 °F 100% 29.56 in 5.0 mi Calm Calm - N/A   Overcast
6:56 PM 26.6 °F - 26.6 °F 100% 29.56 in 5.0 mi Calm Calm - N/A   Overcast
7:16 PM 26.6 °F - 26.6 °F 100% 29.56 in 3.0 mi Calm Calm - N/A   Overcast
7:36 PM 26.6 °F - 26.6 °F 100% 29.56 in 3.0 mi Calm Calm - N/A   Overcast
7:56 PM 28.4 °F - 26.6 °F 93% 29.56 in 2.5 mi Calm Calm - N/A   Overcast
8:16 PM 26.6 °F - 24.8 °F 93% 29.57 in 3.0 mi Calm Calm - N/A   Overcast
8:36 PM 26.6 °F - 24.8 °F 93% 29.57 in 2.5 mi Calm Calm - N/A   Overcast
8:56 PM 24.8 °F - 24.8 °F 100% 29.57 in 3.0 mi Calm Calm - N/A   Overcast
9:16 PM 24.8 °F - 23.0 °F 93% 29.58 in 2.5 mi Calm Calm - N/A   Overcast
9:36 PM 23.0 °F 18.4 °F 21.2 °F 93% 29.58 in 2.0 mi NE 3.5 mph - N/A   Overcast
9:56 PM 23.0 °F 17.0 °F 21.2 °F 93% 29.58 in 1.8 mi NE 4.6 mph - N/A   Overcast
10:16 PM 23.0 °F 17.0 °F 21.2 °F 93% 29.59 in 1.5 mi NNE 4.6 mph - N/A   Overcast
10:36 PM 21.2 °F 11.7 °F 21.2 °F 100% 29.60 in 1.5 mi NNE 8.1 mph - N/A   Overcast
10:56 PM 21.2 °F 11.7 °F 21.2 °F 100% 29.61 in 1.5 mi NE 8.1 mph - N/A   Overcast
11:16 PM 21.2 °F 11.7 °F 19.4 °F 93% 29.62 in 1.5 mi NE 8.1 mph - N/A   Overcast
11:36 PM 21.2 °F 11.7 °F 19.4 °F 93% 29.62 in 1.2 mi NNE 8.1 mph - N/A   Overcast
11:56 PM 21.2 °F 12.6 °F 19.4 °F 93% 29.63 in 1.0 mi NE 6.9 mph - N/A   Overcast